Time,TemperatureF,DewpointF,PressureIn,WindDirection,WindDirectionDegrees,WindSpeedMPH,WindSpeedGustMPH,Humidity,HourlyPrecipIn,Conditions,Clouds,dailyrainin,SoftwareType,DateUTC
2013-02-03 00:06:00,26.6,11.0,30.10,WNW,298,2.0,12.0,52,0.00,,,0.00,weatherlink.com 1.10,2013-02-03 05:06:00,
2013-02-03 00:21:00,26.4,11.0,30.10,NW,309,2.0,11.0,53,0.00,,,0.00,weatherlink.com 1.10,2013-02-03 05:21:00,
2013-02-03 00:37:00,26.0,11.0,30.09,West,269,2.0,13.0,54,0.00,,,0.00,weatherlink.com 1.10,2013-02-03 05:37:00,
2013-02-03 00:51:00,25.5,13.0,30.09,West,279,9.0,10.0,59,0.00,,,0.00,weatherlink.com 1.10,2013-02-03 05:51:00,
2013-02-03 01:06:00,24.7,14.0,30.09,WSW,247,4.0,11.0,65,0.00,,,0.00,weatherlink.com 1.10,2013-02-03 06:06:00,
2013-02-03 01:24:00,24.7,15.0,30.08,West,270,4.0,9.0,67,0.00,,,0.00,weatherlink.com 1.10,2013-02-03 06:24:00,
2013-02-03 01:37:00,24.6,15.0,30.08,WNW,297,5.0,9.0,67,0.00,,,0.00,weatherlink.com 1.10,2013-02-03 06:37:00,
2013-02-03 01:52:00,24.1,16.0,30.08,West,271,4.0,9.0,70,0.00,,,0.00,weatherlink.com 1.10,2013-02-03 06:52:00,
2013-02-03 02:07:00,23.9,16.0,30.07,NW,309,0.0,7.0,73,0.00,,,0.00,weatherlink.com 1.10,2013-02-03 07:07:00,
2013-02-03 02:22:00,23.6,17.0,30.07,West,274,6.0,8.0,75,0.00,,,0.00,weatherlink.com 1.10,2013-02-03 07:22:00,
2013-02-03 02:37:00,23.6,17.0,30.05,WNW,302,5.0,7.0,76,0.00,,,0.00,weatherlink.com 1.10,2013-02-03 07:37:00,
2013-02-03 02:52:00,23.2,17.0,30.04,WNW,300,2.0,7.0,78,0.00,,,0.00,weatherlink.com 1.10,2013-02-03 07:52:00,
2013-02-03 03:07:00,23.4,18.0,30.03,NNW,344,0.0,10.0,78,0.00,,,0.00,weatherlink.com 1.10,2013-02-03 08:07:00,
2013-02-03 03:22:00,23.6,17.0,30.03,West,273,3.0,7.0,77,0.00,,,0.00,weatherlink.com 1.10,2013-02-03 08:22:00,
2013-02-03 03:37:00,23.4,17.0,30.04,WSW,240,2.0,8.0,76,0.00,,,0.00,weatherlink.com 1.10,2013-02-03 08:37:00,
2013-02-03 03:52:00,23.4,17.0,30.04,WNW,300,3.0,4.0,77,0.00,,,0.00,weatherlink.com 1.10,2013-02-03 08:52:00,
2013-02-03 04:07:00,23.2,17.0,30.04,NW,323,2.0,5.0,78,0.00,,,0.00,weatherlink.com 1.10,2013-02-03 09:07:00,
2013-02-03 04:22:00,23.2,17.0,30.04,West,266,1.0,3.0,78,0.00,,,0.00,weatherlink.com 1.10,2013-02-03 09:22:00,
2013-02-03 04:37:00,23.3,17.0,30.04,West,278,2.0,4.0,78,0.00,,,0.00,weatherlink.com 1.10,2013-02-03 09:37:00,
2013-02-03 04:52:00,23.4,18.0,30.03,SE,141,0.0,3.0,79,0.00,,,0.00,weatherlink.com 1.10,2013-02-03 09:52:00,
2013-02-03 05:07:00,23.4,18.0,30.03,East,85,0.0,3.0,78,0.00,,,0.00,weatherlink.com 1.10,2013-02-03 10:07:00,
2013-02-03 05:22:00,23.4,18.0,30.03,NW,321,1.0,3.0,78,0.00,,,0.00,weatherlink.com 1.10,2013-02-03 10:22:00,
2013-02-03 05:37:00,23.3,17.0,30.03,WNW,292,1.0,4.0,78,0.00,,,0.00,weatherlink.com 1.10,2013-02-03 10:37:00,
2013-02-03 05:52:00,23.2,18.0,30.02,ENE,78,3.0,3.0,79,0.00,,,0.00,weatherlink.com 1.10,2013-02-03 10:52:00,
2013-02-03 06:07:00,22.9,18.0,30.01,ENE,68,1.0,6.0,80,0.00,,,0.00,weatherlink.com 1.10,2013-02-03 11:07:00,
2013-02-03 06:22:00,22.9,18.0,30.01,NNE,26,0.0,4.0,81,0.00,,,0.00,weatherlink.com 1.10,2013-02-03 11:22:00,
2013-02-03 06:37:00,23.0,19.0,30.00,NW,323,0.0,4.0,83,0.00,,,0.00,weatherlink.com 1.10,2013-02-03 11:37:00,
2013-02-03 06:53:00,22.8,18.0,30.00,NW,318,0.0,5.0,83,0.00,,,0.00,weatherlink.com 1.10,2013-02-03 11:53:00,
2013-02-03 07:07:00,22.7,18.0,30.00,NW,319,3.0,4.0,83,0.00,,,0.00,weatherlink.com 1.10,2013-02-03 12:07:00,
2013-02-03 07:22:00,22.7,18.0,30.00,NNW,341,2.0,6.0,82,0.00,,,0.00,weatherlink.com 1.10,2013-02-03 12:22:00,
2013-02-03 07:37:00,22.8,18.0,30.00,North,353,1.0,5.0,82,0.00,,,0.00,weatherlink.com 1.10,2013-02-03 12:37:00,
2013-02-03 07:52:00,23.1,18.0,30.01,North,5,0.0,4.0,80,0.00,,,0.00,weatherlink.com 1.10,2013-02-03 12:52:00,
2013-02-03 08:07:00,23.4,18.0,30.02,West,280,1.0,5.0,79,0.00,,,0.00,weatherlink.com 1.10,2013-02-03 13:07:00,
2013-02-03 08:23:00,23.6,18.0,30.02,NNE,26,1.0,4.0,78,0.00,,,0.00,weatherlink.com 1.10,2013-02-03 13:23:00,
2013-02-03 08:37:00,23.8,18.0,30.01,NW,311,2.0,4.0,79,0.00,,,0.00,weatherlink.com 1.10,2013-02-03 13:37:00,
2013-02-03 08:53:00,24.0,18.0,30.00,SW,231,0.0,4.0,78,0.00,,,0.00,weatherlink.com 1.10,2013-02-03 13:53:00,
2013-02-03 09:08:00,24.2,19.0,30.00,North,8,1.0,4.0,79,0.00,,,0.00,weatherlink.com 1.10,2013-02-03 14:08:00,
2013-02-03 09:23:00,24.0,18.0,30.00,NNW,346,1.0,10.0,78,0.00,,,0.00,weatherlink.com 1.10,2013-02-03 14:23:00,
2013-02-03 09:38:00,24.0,18.0,29.99,NW,315,2.0,8.0,78,0.00,,,0.00,weatherlink.com 1.10,2013-02-03 14:38:00,
2013-02-03 09:53:00,24.1,18.0,29.99,WNW,283,3.0,6.0,78,0.00,,,0.00,weatherlink.com 1.10,2013-02-03 14:53:00,
2013-02-03 10:08:00,24.2,19.0,29.98,West,277,0.0,6.0,79,0.00,,,0.00,weatherlink.com 1.10,2013-02-03 15:08:00,
2013-02-03 10:23:00,24.3,19.0,29.97,WNW,297,2.0,8.0,80,0.00,,,0.00,weatherlink.com 1.10,2013-02-03 15:23:00,
2013-02-03 10:38:00,24.3,19.0,29.97,WNW,287,2.0,7.0,81,0.00,,,0.00,weatherlink.com 1.10,2013-02-03 15:38:00,
2013-02-03 10:53:00,24.4,19.0,29.95,WSW,255,0.0,8.0,81,0.00,,,0.00,weatherlink.com 1.10,2013-02-03 15:53:00,
2013-02-03 11:08:00,25.3,20.0,29.95,WNW,290,2.0,6.0,79,0.00,,,0.00,weatherlink.com 1.10,2013-02-03 16:08:00,
2013-02-03 11:23:00,25.1,19.0,29.94,West,269,2.0,10.0,79,0.00,,,0.00,weatherlink.com 1.10,2013-02-03 16:23:00,
2013-02-03 11:38:00,25.6,20.0,29.92,West,281,8.0,9.0,79,0.00,,,0.00,weatherlink.com 1.10,2013-02-03 16:38:00,
2013-02-03 11:53:00,25.5,20.0,29.91,WNW,288,4.0,8.0,78,0.00,,,0.00,weatherlink.com 1.10,2013-02-03 16:53:00,
2013-02-03 12:08:00,26.2,21.0,29.90,West,269,3.0,5.0,80,0.00,,,0.00,weatherlink.com 1.10,2013-02-03 17:08:00,
2013-02-03 12:23:00,25.4,20.0,29.89,NNW,336,2.0,8.0,80,0.00,,,0.00,weatherlink.com 1.10,2013-02-03 17:23:00,
2013-02-03 12:38:00,25.6,21.0,29.88,NE,40,3.0,7.0,82,0.00,,,0.00,weatherlink.com 1.10,2013-02-03 17:38:00,
2013-02-03 12:53:00,25.9,21.0,29.88,NNW,333,1.0,7.0,81,0.00,,,0.00,weatherlink.com 1.10,2013-02-03 17:53:00,
2013-02-03 13:09:00,25.4,20.0,29.87,WNW,288,4.0,10.0,80,0.00,,,0.00,weatherlink.com 1.10,2013-02-03 18:09:00,
2013-02-03 13:24:00,25.4,20.0,29.87,West,269,5.0,7.0,81,0.00,,,0.00,weatherlink.com 1.10,2013-02-03 18:24:00,
2013-02-03 13:38:00,25.2,20.0,29.86,West,272,3.0,8.0,82,0.00,,,0.00,weatherlink.com 1.10,2013-02-03 18:38:00,
2013-02-03 13:53:00,25.5,21.0,29.85,West,274,2.0,7.0,82,0.00,,,0.00,weatherlink.com 1.10,2013-02-03 18:53:00,
2013-02-03 14:09:00,25.5,20.0,29.84,NW,326,4.0,11.0,81,0.00,,,0.00,weatherlink.com 1.10,2013-02-03 19:09:00,
2013-02-03 14:24:00,25.6,21.0,29.84,North,1,3.0,5.0,83,0.00,,,0.00,weatherlink.com 1.10,2013-02-03 19:24:00,
2013-02-03 14:38:00,26.1,21.0,29.84,SW,222,1.0,6.0,82,0.00,,,0.00,weatherlink.com 1.10,2013-02-03 19:38:00,
2013-02-03 14:53:00,26.0,21.0,29.84,WNW,287,2.0,7.0,82,0.00,,,0.00,weatherlink.com 1.10,2013-02-03 19:53:00,
2013-02-03 15:09:00,25.9,21.0,29.84,NNW,327,2.0,8.0,82,0.00,,,0.00,weatherlink.com 1.10,2013-02-03 20:09:00,
2013-02-03 15:23:00,25.7,20.0,29.84,NW,314,2.0,9.0,80,0.00,,,0.00,weatherlink.com 1.10,2013-02-03 20:23:00,
2013-02-03 15:39:00,25.8,21.0,29.83,North,353,7.0,9.0,81,0.00,,,0.00,weatherlink.com 1.10,2013-02-03 20:39:00,
2013-02-03 15:54:00,25.6,21.0,29.83,SW,233,4.0,9.0,81,0.00,,,0.00,weatherlink.com 1.10,2013-02-03 20:54:00,
2013-02-03 16:09:00,25.8,21.0,29.82,West,267,0.0,5.0,82,0.00,,,0.00,weatherlink.com 1.10,2013-02-03 21:09:00,
2013-02-03 16:24:00,25.6,21.0,29.82,North,4,4.0,8.0,81,0.00,,,0.00,weatherlink.com 1.10,2013-02-03 21:24:00,
2013-02-03 16:39:00,25.7,21.0,29.82,SW,228,1.0,6.0,82,0.00,,,0.00,weatherlink.com 1.10,2013-02-03 21:39:00,
2013-02-03 16:54:00,25.8,21.0,29.81,NNW,345,3.0,7.0,82,0.00,,,0.00,weatherlink.com 1.10,2013-02-03 21:54:00,
2013-02-03 17:09:00,25.7,21.0,29.80,NW,321,2.0,5.0,82,0.00,,,0.00,weatherlink.com 1.10,2013-02-03 22:09:00,
2013-02-03 17:24:00,25.9,21.0,29.80,NNE,22,0.0,5.0,83,0.00,,,0.00,weatherlink.com 1.10,2013-02-03 22:24:00,
2013-02-03 17:39:00,25.9,21.0,29.81,WSW,239,1.0,3.0,83,0.00,,,0.00,weatherlink.com 1.10,2013-02-03 22:39:00,
2013-02-03 17:54:00,25.5,20.0,29.81,NE,37,0.0,6.0,81,0.00,,,0.00,weatherlink.com 1.10,2013-02-03 22:54:00,
2013-02-03 18:09:00,25.3,20.0,29.81,NE,36,2.0,9.0,81,0.00,,,0.00,weatherlink.com 1.10,2013-02-03 23:09:00,
2013-02-03 18:24:00,25.2,20.0,29.82,NW,321,2.0,8.0,81,0.00,,,0.00,weatherlink.com 1.10,2013-02-03 23:24:00,
2013-02-03 18:39:00,25.3,20.0,29.82,NNW,336,3.0,6.0,81,0.00,,,0.00,weatherlink.com 1.10,2013-02-03 23:39:00,
2013-02-03 18:54:00,25.2,20.0,29.82,NNE,23,2.0,8.0,79,0.00,,,0.00,weatherlink.com 1.10,2013-02-03 23:54:00,
2013-02-03 19:09:00,25.3,20.0,29.82,NW,323,1.0,4.0,80,0.00,,,0.00,weatherlink.com 1.10,2013-02-04 00:09:00,
2013-02-03 19:39:00,25.1,19.0,29.81,NNE,12,2.0,8.0,79,0.00,,,0.00,weatherlink.com 1.10,2013-02-04 00:39:00,
2013-02-03 19:54:00,25.1,19.0,29.81,West,269,1.0,7.0,79,0.00,,,0.00,weatherlink.com 1.10,2013-02-04 00:54:00,
2013-02-03 20:09:00,25.2,20.0,29.80,SW,222,0.0,4.0,79,0.00,,,0.00,weatherlink.com 1.10,2013-02-04 01:09:00,
2013-02-03 20:24:00,25.1,19.0,29.80,North,9,1.0,8.0,79,0.00,,,0.00,weatherlink.com 1.10,2013-02-04 01:24:00,
2013-02-03 20:39:00,24.9,20.0,29.80,NNW,337,0.0,8.0,80,0.00,,,0.00,weatherlink.com 1.10,2013-02-04 01:39:00,
2013-02-03 20:54:00,25.0,20.0,29.80,WNW,285,0.0,6.0,80,0.00,,,0.00,weatherlink.com 1.10,2013-02-04 01:54:00,
2013-02-03 21:09:00,24.8,19.0,29.80,ENE,61,1.0,6.0,80,0.00,,,0.00,weatherlink.com 1.10,2013-02-04 02:09:00,
2013-02-03 21:24:00,24.8,20.0,29.79,SSW,194,0.0,7.0,81,0.00,,,0.00,weatherlink.com 1.10,2013-02-04 02:24:00,
2013-02-03 21:39:00,24.7,20.0,29.78,WSW,238,3.0,8.0,81,0.00,,,0.00,weatherlink.com 1.10,2013-02-04 02:39:00,
2013-02-03 21:54:00,24.6,20.0,29.78,WNW,297,2.0,8.0,81,0.00,,,0.00,weatherlink.com 1.10,2013-02-04 02:54:00,
2013-02-03 22:09:00,24.6,20.0,29.78,NNW,332,0.0,6.0,81,0.00,,,0.00,weatherlink.com 1.10,2013-02-04 03:09:00,
2013-02-03 22:24:00,24.4,19.0,29.78,ESE,122,0.0,7.0,80,0.00,,,0.00,weatherlink.com 1.10,2013-02-04 03:24:00,
2013-02-03 22:39:00,24.6,19.0,29.77,ENE,68,1.0,6.0,80,0.00,,,0.00,weatherlink.com 1.10,2013-02-04 03:39:00,
2013-02-03 22:54:00,24.6,19.0,29.77,WSW,248,3.0,9.0,79,0.00,,,0.00,weatherlink.com 1.10,2013-02-04 03:54:00,
2013-02-03 23:09:00,24.7,19.0,29.77,NNW,329,5.0,9.0,79,0.00,,,0.00,weatherlink.com 1.10,2013-02-04 04:09:00,
2013-02-03 23:24:00,24.8,19.0,29.77,SSW,208,1.0,7.0,78,0.00,,,0.00,weatherlink.com 1.10,2013-02-04 04:24:00,
2013-02-03 23:39:00,24.6,19.0,29.77,NW,323,4.0,8.0,78,0.00,,,0.00,weatherlink.com 1.10,2013-02-04 04:39:00,
2013-02-03 23:54:00,24.5,19.0,29.77,NW,307,4.0,8.0,81,0.00,,,0.00,weatherlink.com 1.10,2013-02-04 04:54:00,